Theta_e
316 315 315 315 314 314 313 312 312 314 315 315 316 316 315 316 316 317 317 317 316 316 317 318 322 324 325 329 328 321 318 319 320 320 319 319 322 326 327 326 325 324 323 323 323 322 322 322 322 322 322 321 321 322 322 322 322 322 319 316 314 313 313 313 315 317 319 320 321 323 325 326 327 328 328 328 329 329 330 330 330 330 330 330 330
317 316 316 315 315 314 312 310 309 311 314 315 315 315 315 315 315 315 316 317 316 316 316 316 318 322 326 330 329 323 320 321 321 321 321 321 324 327 327 325 323 322 320 319 320 321 323 322 321 321 321 320 321 321 322 322 322 322 322 320 318 316 313 313 313 312 313 313 314 317 320 323 325 327 327 327 328 328 329 329 329 329 330 330 330
316 317 316 315 313 311 310 308 306 310 313 314 314 314 314 314 314 314 315 315 316 316 316 316 316 317 322 326 328 325 323 322 323 323 322 322 323 324 324 323 322 320 319 318 318 320 322 323 321 321 321 321 321 321 322 322 322 321 321 321 321 320 318 316 315 314 313 312 312 313 314 316 320 324 327 327 327 327 327 328 328 328 328 329 329
316 316 315 314 311 309 307 306 307 310 313 313 313 314 313 313 313 313 313 314 315 315 314 315 314 314 315 319 322 323 322 322 322 322 321 320 320 320 319 318 318 318 318 317 317 319 320 322 321 320 320 320 321 321 320 320 320 320 320 321 321 321 321 320 319 318 317 315 314 313 313 313 315 320 324 325 326 326 326 327 327 327 327 327 328
316 315 314 313 312 309 306 306 308 310 312 312 313 313 313 313 312 312 312 313 313 312 312 312 311 311 310 312 315 315 316 318 318 318 317 315 315 314 313 313 313 314 314 315 316 318 319 319 319 318 318 318 319 319 319 319 320 319 321 322 321 321 321 321 321 320 319 318 317 316 315 315 316 318 320 321 322 323 325 325 326 326 326 327 327
315 314 314 314 313 310 306 305 307 309 311 311 312 312 312 312 311 311 312 311 310 309 310 309 308 308 308 308 309 309 310 311 311 311 312 311 311 310 309 309 309 309 310 312 314 315 315 317 318 317 318 320 319 320 320 320 320 320 321 322 321 321 321 321 321 320 320 319 319 318 317 317 317 318 319 319 319 320 322 323 324 325 325 326 326
315 315 315 315 313 310 307 304 303 305 308 310 311 312 311 311 310 309 310 309 307 307 307 306 305 306 305 305 305 305 306 306 306 307 307 307 307 307 307 306 306 306 306 308 309 309 310 314 318 319 319 319 318 319 320 320 320 320 320 320 320 320 320 320 320 319 319 319 318 318 318 318 317 318 318 319 319 319 319 320 322 323 324 324 324
316 316 316 314 312 310 308 306 302 299 302 306 309 309 310 310 309 307 308 307 305 305 305 304 304 304 304 304 304 304 304 303 303 304 304 304 304 304 304 304 304 304 304 304 305 307 308 312 315 317 316 316 316 316 317 318 319 319 319 319 319 319 319 318 318 318 318 317 318 318 318 318 317 317 317 318 319 318 317 317 319 320 322 323 323
317 316 315 313 311 310 308 306 303 297 296 302 305 306 306 306 306 305 307 306 304 304 303 303 303 303 303 303 303 303 303 302 302 302 302 302 302 302 302 302 303 303 303 304 305 307 309 310 312 313 313 313 313 313 313 314 315 316 317 317 317 317 317 316 315 316 316 316 316 316 317 317 317 317 317 317 317 317 317 316 317 318 319 321 322
317 316 314 312 311 310 307 306 304 297 295 298 301 303 303 303 303 303 306 306 303 303 303 303 303 302 302 302 302 303 302 301 301 301 301 301 301 301 301 301 301 302 303 303 305 307 308 309 309 310 309 309 309 310 310 310 310 312 313 314 315 315 315 314 313 313 313 314 314 314 314 314 315 315 315 315 316 316 316 316 316 316 316 317 319
316 315 313 312 310 308 306 305 303 297 294 296 298 299 300 301 301 301 305 306 304 303 302 302 301 301 300 299 300 300 301 301 300 300 300 300 300 300 300 300 300 300 301 301 302 303 304 305 305 306 305 305 305 305 306 306 307 308 310 311 312 312 313 312 312 312 312 312 312 312 312 312 312 313 313 314 314 314 314 314 314 315 315 315 315
316 314 312 311 310 307 305 304 302 297 294 295 296 298 298 300 300 301 304 306 305 303 302 301 301 300 299 298 297 297 297 297 298 298 298 299 300 300 299 299 299 299 299 299 300 300 300 300 301 301 301 301 301 302 302 302 303 303 305 308 309 310 310 310 311 311 312 312 311 311 311 311 311 311 311 312 313 312 312 312 312 313 314 313 312
315 313 312 311 308 306 304 303 301 297 294 294 296 298 299 299 300 300 303 306 305 304 303 302 302 302 301 299 298 296 295 295 295 295 296 297 298 299 299 299 298 298 298 298 298 298 298 298 298 298 298 298 298 299 299 299 300 300 300 303 306 308 308 308 309 309 310 311 311 311 311 311 310 310 310 311 311 311 311 311 311 312 313 312 310
314 313 312 309 306 304 303 302 300 297 294 294 295 298 299 299 300 300 301 302 303 304 305 304 304 304 303 303 302 300 297 295 294 294 293 294 295 296 297 298 298 297 297 297 297 297 296 296 296 296 295 295 295 295 296 296 296 297 296 298 303 306 306 307 307 308 308 309 309 309 310 310 310 310 310 310 310 310 310 310 311 311 312 312 309
314 313 310 307 304 303 302 301 299 296 295 294 295 298 299 300 299 299 299 300 300 301 302 304 304 304 305 308 307 307 304 299 296 295 293 292 293 293 293 294 295 295 295 295 295 295 295 294 293 293 293 292 292 292 292 293 292 293 294 294 300 305 305 306 306 306 306 306 307 307 308 308 308 309 309 310 310 309 309 309 309 310 310 310 309
314 312 309 306 303 302 301 300 298 296 296 295 296 299 301 300 300 299 299 299 298 298 298 300 301 303 307 309 306 308 310 303 298 298 295 293 292 292 291 291 291 292 292 292 293 294 293 293 293 292 292 292 291 291 291 291 291 292 291 292 300 304 304 304 304 304 304 304 305 306 306 306 307 307 308 308 309 309 309 308 309 309 308 309 309
314 311 308 305 302 301 300 299 298 297 296 295 296 298 300 301 300 299 299 298 298 297 297 297 297 299 302 305 306 309 309 302 299 300 297 295 293 292 291 291 290 290 291 291 292 292 292 293 293 292 292 292 291 291 290 290 291 292 292 294 300 303 302 303 302 302 303 303 304 304 304 305 305 306 306 306 307 308 308 308 308 308 308 308 308
314 310 307 304 302 300 299 299 298 297 296 295 296 297 299 300 300 300 299 298 297 297 297 296 296 296 295 298 300 301 302 301 303 303 299 296 294 292 291 291 291 289 289 291 291 292 292 292 292 291 292 292 291 290 290 291 291 292 293 296 301 302 301 301 301 301 302 302 302 302 302 303 304 304 305 305 306 306 307 307 307 308 308 307 307
313 309 306 303 302 300 299 298 298 297 296 295 296 297 298 299 299 299 298 297 296 297 298 297 296 296 295 295 295 296 297 299 301 303 302 300 295 292 291 291 291 290 289 290 290 292 292 290 290 290 291 291 289 289 290 291 291 292 295 298 300 300 300 300 300 300 301 301 302 302 302 302 303 303 303 304 304 305 305 306 306 307 307 307 307
312 309 306 304 302 300 298 298 298 298 297 296 297 298 298 299 299 298 297 295 294 295 297 297 297 297 296 296 296 296 296 296 298 298 300 303 300 294 292 290 291 291 289 289 290 291 291 289 288 289 289 288 287 289 291 291 291 292 295 298 300 299 299 299 299 299 300 300 301 302 302 302 303 303 302 302 303 304 304 305 305 306 307 307 307
312 309 307 305 303 300 298 298 298 299 298 297 296 297 298 298 298 298 296 295 294 293 295 296 296 296 295 295 296 295 295 295 296 295 295 299 300 296 293 291 291 291 288 288 289 290 290 288 287 288 288 287 287 289 290 291 291 290 294 298 299 299 299 298 298 299 299 300 300 301 301 302 303 303 303 302 303 303 304 304 304 305 306 306 306
311 309 308 306 304 301 298 298 298 299 299 298 296 296 297 298 298 297 296 295 295 294 295 295 295 295 294 295 295 295 295 294 294 294 294 295 295 294 293 292 292 292 288 288 288 289 290 288 287 288 287 287 287 288 288 290 290 290 294 297 298 298 297 297 298 298 298 299 300 300 300 301 301 302 303 303 303 303 304 304 304 304 305 305 306
311 310 309 307 304 301 299 298 298 299 299 299 297 296 297 298 298 298 297 296 296 295 295 295 295 295 294 294 295 294 294 294 293 293 293 293 293 293 292 290 291 291 288 288 288 289 289 288 287 287 287 287 287 287 288 289 289 291 294 296 296 296 296 296 297 297 297 298 298 299 299 300 300 301 302 303 303 303 303 303 303 303 304 304 305
312 312 310 306 304 302 300 298 297 298 299 299 298 297 296 297 297 297 297 296 296 295 294 293 293 293 294 294 294 294 293 293 292 291 291 291 291 291 291 289 290 289 287 287 288 288 289 288 287 287 287 287 287 287 287 288 289 290 293 295 295 294 294 295 295 296 297 297 297 298 298 299 299 300 301 302 302 302 302 302 302 303 303 304 304
313 312 310 307 305 304 302 298 296 297 298 298 298 297 297 296 296 296 296 296 296 295 294 293 291 290 291 292 292 291 290 289 289 288 288 288 288 289 289 288 288 288 287 287 287 288 288 288 287 287 287 287 287 287 287 288 288 289 293 294 293 292 293 294 294 295 296 296 296 297 297 298 298 299 300 301 301 301 301 301 302 302 303 303 304
314 313 310 308 307 306 304 299 296 296 297 298 297 297 297 297 296 296 296 296 295 295 295 294 292 290 290 291 292 292 290 288 287 287 286 286 287 288 287 287 287 287 286 286 286 287 288 288 288 287 287 286 286 287 287 288 288 289 293 293 291 291 292 292 294 295 295 295 296 296 297 297 297 298 299 300 300 300 300 301 301 302 302 302 303
315 314 311 309 308 307 305 300 296 296 297 297 297 298 297 297 297 296 296 296 295 295 295 295 294 292 292 292 294 294 292 290 288 287 287 286 286 286 286 288 289 288 287 287 286 286 287 288 287 287 287 286 286 287 288 288 288 290 292 292 290 290 291 291 293 294 294 294 295 295 296 296 297 297 298 298 299 299 299 300 300 301 301 302 302
316 314 312 310 309 308 305 300 296 296 297 297 297 298 297 296 296 296 296 296 295 295 295 295 294 294 293 294 294 294 294 292 290 289 287 286 286 285 285 287 289 288 288 289 288 286 287 288 287 287 287 286 286 288 289 289 289 290 291 290 290 291 291 291 293 293 294 294 294 294 295 295 296 297 297 297 298 298 298 299 299 300 300 300 301
317 314 312 311 309 307 304 300 297 296 296 297 297 297 297 296 296 296 296 295 295 295 295 294 295 294 294 294 295 294 294 293 292 291 288 286 286 286 285 285 287 287 288 289 288 287 287 287 287 287 286 286 287 288 289 289 290 290 290 290 290 291 291 291 292 292 292 293 293 294 294 295 295 296 296 297 297 297 298 298 299 299 299 299 300
317 315 313 311 309 306 304 301 298 296 296 296 297 297 297 296 296 296 296 295 295 295 295 294 294 295 294 294 294 295 294 294 293 292 290 287 286 287 286 285 285 286 287 288 287 286 286 287 286 286 286 286 287 288 289 289 290 290 290 290 291 291 291 291 291 291 291 291 292 292 293 294 294 295 296 296 297 297 297 297 298 298 298 298 298
317 315 313 312 309 306 304 301 298 296 295 296 296 297 297 296 296 296 295 295 295 295 295 295 294 295 294 294 294 295 294 294 294 293 291 288 287 288 287 285 284 285 286 287 287 287 286 286 286 286 286 286 287 288 288 289 289 289 289 290 290 290 291 291 291 291 291 291 291 291 291 292 293 294 295 295 296 296 296 296 296 297 297 296 296
317 316 314 312 310 307 305 302 299 297 296 296 297 297 296 296 296 295 295 295 295 295 295 295 294 295 294 294 294 295 294 294 294 294 292 289 288 289 289 287 284 284 284 285 287 287 286 286 286 286 286 286 287 287 288 288 288 289 289 289 290 290 290 290 290 290 290 290 290 290 291 291 292 293 293 294 295 295 295 295 295 295 295 295 295
318 316 315 313 310 308 305 302 300 297 296 296 297 297 297 297 296 296 296 296 295 295 295 295 295 294 294 294 294 294 294 294 294 293 291 290 289 289 289 287 284 283 284 285 286 287 287 286 286 286 286 286 287 287 287 287 288 288 288 289 289 289 289 289 289 289 289 289 290 291 291 291 292 292 292 293 294 294 293 293 293 293 294 294 295
318 317 315 314 311 308 305 303 300 298 296 295 296 297 297 297 297 296 296 296 296 295 295 295 295 295 294 294 294 294 293 293 293 292 290 290 289 289 289 287 284 283 284 285 285 286 287 286 286 286 286 286 286 287 287 287 287 287 288 288 288 288 288 288 288 288 289 289 290 291 291 291 291 292 292 292 292 292 292 292 293 293 293 293 294
318 317 316 315 312 308 305 303 300 298 297 296 296 297 297 297 296 296 296 296 296 296 295 295 295 295 294 294 294 294 293 292 291 291 291 290 290 290 288 285 284 283 284 286 286 286 286 286 286 286 286 286 286 286 286 286 287 287 287 287 287 287 287 288 288 288 289 290 290 291 291 292 292 292 292 292 292 292 292 293 293 293 293 293 293
318 317 316 314 311 308 305 303 301 299 298 297 296 296 296 296 296 296 296 296 296 296 295 295 295 295 294 294 294 293 292 291 291 292 292 291 291 290 287 284 284 284 284 285 286 286 286 286 286 286 286 286 286 286 286 286 286 286 287 287 287 287 287 287 288 288 289 289 290 291 291 292 291 291 291 292 292 292 292 293 293 293 293 293 293
319 318 316 314 311 308 306 305 302 300 299 298 297 296 296 297 297 296 296 295 296 296 296 295 295 295 294 294 294 292 291 291 292 293 293 292 292 289 286 284 285 285 285 285 286 286 286 286 286 286 286 286 286 285 285 286 286 286 286 286 286 287 287 287 288 288 289 289 290 291 291 291 291 291 291 292 292 292 292 292 293 293 293 293 293
319 318 317 314 312 309 307 305 303 301 300 299 298 297 297 297 297 297 296 296 296 296 295 295 295 295 294 294 294 292 290 291 293 293 293 293 292 288 285 285 285 285 285 286 286 286 286 286 286 286 286 286 286 285 285 285 286 286 286 286 286 286 287 287 288 288 289 290 290 290 290 290 291 291 291 291 292 292 292 292 293 293 293 293 294
320 319 317 315 313 311 308 306 303 301 300 300 299 298 298 297 297 297 297 297 296 296 295 295 295 295 294 294 293 292 291 292 293 294 294 294 292 287 285 285 286 285 286 286 286 286 286 286 286 286 286 286 286 285 285 285 285 286 286 286 287 287 286 287 287 288 289 289 290 290 290 290 291 291 291 291 292 292 292 292 293 293 294 294 294
320 319 318 316 313 311 308 305 304 301 300 300 299 299 298 297 297 297 297 297 297 296 296 295 295 295 294 294 294 294 293 293 294 294 294 294 291 287 285 286 286 286 286 287 287 287 287 286 287 287 286 286 286 285 285 285 286 286 286 286 287 287 287 287 287 288 289 289 289 290 290 290 290 291 291 291 292 292 292 293 293 293 294 294 294
320 319 318 316 313 310 308 306 303 301 300 300 300 299 298 296 295 296 296 297 297 296 296 295 295 295 294 294 294 294 294 295 296 295 295 294 290 287 286 287 287 287 287 287 287 287 287 287 287 287 287 286 286 286 285 285 285 286 286 286 287 287 286 287 287 288 288 289 289 289 290 290 290 291 291 291 292 292 293 293 293 293 293 293 293
319 318 317 315 313 311 308 306 304 302 301 300 300 300 298 294 292 292 293 294 295 296 296 295 295 295 295 294 294 295 294 295 296 296 295 293 290 287 287 287 287 287 287 287 287 287 287 287 287 287 287 287 286 286 285 285 285 285 286 286 287 287 286 287 287 288 288 289 289 289 290 290 290 291 291 292 292 292 293 293 293 293 293 293 293
319 318 317 315 314 312 309 307 305 303 302 301 300 300 296 292 290 290 290 290 292 294 295 296 295 295 295 295 295 295 295 295 295 294 294 293 290 287 288 288 288 288 288 288 288 287 287 287 287 287 287 287 286 286 285 285 285 285 286 286 286 286 287 287 288 288 288 288 289 289 290 290 290 291 292 292 292 292 292 293 293 293 293 293 293
319 317 317 316 315 313 309 307 305 304 302 301 300 299 295 291 290 290 289 289 289 291 293 294 295 295 295 295 295 295 295 295 296 295 294 293 290 288 288 289 288 289 289 288 288 288 287 287 287 287 287 286 286 286 285 285 285 285 285 286 286 286 287 287 288 288 288 288 288 289 290 290 291 292 292 292 292 292 292 292 293 293 293 293 293
319 317 317 316 315 313 310 308 306 305 303 301 300 299 296 292 290 290 290 289 289 289 289 291 293 295 296 296 295 295 295 296 297 296 295 294 291 288 288 289 289 289 289 289 289 288 288 288 287 287 286 286 286 285 284 285 285 285 285 286 286 286 287 288 287 287 288 288 289 289 290 291 291 292 292 292 292 292 292 293 294 294 295 295 294
319 317 317 316 314 313 310 308 307 305 304 302 300 299 298 294 291 289 289 289 289 289 288 289 290 292 294 294 295 296 296 296 296 296 296 294 291 288 288 289 289 289 290 290 289 288 287 287 287 287 286 285 285 284 284 284 284 285 285 285 286 287 287 287 287 287 288 289 289 290 291 291 291 291 291 292 292 292 293 295 296 296 296 296 296
319 318 317 316 314 312 311 309 307 305 304 302 300 300 299 297 292 290 289 289 289 289 289 289 290 291 292 294 295 296 296 295 295 295 295 294 290 288 289 289 289 289 290 290 289 288 287 287 287 286 286 285 284 284 283 283 284 285 286 286 286 287 286 287 287 288 289 289 289 290 291 291 291 291 291 291 291 292 294 296 296 296 295 295 295
317 317 317 315 314 314 312 309 307 306 304 302 301 300 300 298 294 290 289 289 289 289 289 289 291 293 294 296 296 295 294 293 293 294 294 292 290 288 288 289 289 289 290 290 289 288 288 287 287 286 286 285 284 284 283 284 285 286 286 287 287 286 286 286 288 288 289 289 289 290 290 291 291 291 291 291 291 292 295 296 296 295 295 294 294
318 319 317 315 315 314 313 310 308 307 305 303 301 300 300 299 296 292 289 289 289 289 289 289 290 292 295 296 296 294 293 293 293 294 293 291 290 289 289 288 289 289 290 290 290 289 288 288 287 287 286 285 284 284 283 284 286 287 286 286 286 285 286 287 288 288 288 289 289 289 290 290 290 290 291 291 291 292 294 296 296 296 295 294 293
319 319 316 314 314 314 312 311 310 308 306 304 302 301 300 300 297 294 290 289 289 289 289 289 289 291 293 295 296 295 293 292 293 294 293 291 290 289 289 289 289 289 290 291 290 289 288 288 287 287 286 285 285 284 283 284 286 287 286 286 286 285 286 287 287 288 288 289 289 289 289 290 290 290 290 291 291 293 294 296 296 296 296 296 294
317 317 316 314 315 314 312 311 309 308 307 305 302 301 300 300 298 296 292 290 289 289 289 289 289 290 291 293 294 294 291 291 292 294 293 292 291 290 290 289 289 289 290 291 290 289 288 288 287 287 286 286 285 284 283 284 286 287 287 287 287 285 285 286 287 287 288 288 289 289 289 289 290 290 290 290 291 293 295 296 296 296 297 297 296
Wind_Speed
14 13 12 13 14 13 13 12 12 12 11 11 10 11 12 12 11 11 12 12 13 14 14 14 13 12 12 14 15 14 15 15 13 12 11 10 9 10 10 11 13 13 14 15 15 16 16 15 15 15 15 16 16 17 17 18 17 16 16 17 16 15 15 14 13 12 12 12 12 10 10 10 9 8 9 8 9 10 11 12 13 13 14 14 13
13 12 11 13 13 14 14 14 12 11 10 9 9 10 11 12 12 12 11 12 13 13 14 14 14 14 14 15 14 13 13 12 11 10 9 8 7 9 11 11 11 11 11 12 13 14 16 15 14 14 14 14 15 16 16 17 16 16 15 15 15 14 14 13 13 13 12 12 11 11 11 11 10 10 10 10 10 10 11 11 12 13 14 14 14
11 11 11 13 14 16 16 15 13 10 8 8 8 9 10 11 13 14 13 13 13 13 13 14 15 15 14 13 12 11 11 9 8 8 7 7 7 8 10 10 10 10 10 10 11 12 14 15 14 14 14 14 14 14 15 15 16 15 15 14 14 14 13 13 13 13 12 12 12 11 11 11 11 11 10 10 11 11 11 11 12 13 14 14 15
11 11 12 14 16 18 18 16 13 10 8 8 8 9 10 10 12 13 13 13 14 14 14 14 16 17 16 15 13 12 12 10 10 10 10 10 10 10 11 11 10 10 9 10 11 11 11 12 14 14 14 14 15 14 15 15 15 16 15 13 11 10 11 11 11 12 12 12 13 12 12 11 11 11 10 10 11 11 11 11 11 11 12 13 14
11 11 13 15 18 19 19 16 13 10 8 7 7 8 8 9 10 11 13 14 15 16 16 17 19 20 20 20 18 18 17 16 15 15 14 14 14 14 14 13 12 11 10 10 11 11 11 11 13 14 14 16 16 15 15 15 16 16 14 13 10 9 8 8 9 10 11 11 12 12 12 12 11 11 11 11 11 11 12 12 11 11 11 12 13
11 12 13 15 17 19 19 16 13 11 9 8 7 8 8 10 10 11 12 14 17 19 19 20 22 23 24 24 24 24 23 22 22 20 19 18 17 16 16 16 15 15 13 12 12 14 14 14 15 16 16 16 15 15 16 15 15 14 13 13 12 11 9 9 9 9 9 10 11 11 11 11 11 11 12 12 12 11 11 12 12 12 12 12 12
11 11 13 15 17 19 19 17 14 11 10 9 8 8 9 10 11 11 13 16 19 21 22 23 24 25 25 26 26 27 26 26 25 24 23 21 20 19 19 18 18 17 16 15 15 16 16 16 17 17 16 16 15 15 17 17 16 15 14 13 13 12 11 10 10 9 9 9 9 10 10 11 11 11 12 13 13 12 11 11 12 12 12 13 12
11 11 13 15 16 18 18 17 15 13 11 9 9 10 10 9 10 11 13 18 21 23 24 25 26 27 26 26 27 27 27 27 27 26 24 23 22 21 21 20 20 19 18 17 16 16 15 14 15 15 15 15 15 15 16 18 19 19 17 16 15 14 14 13 13 12 11 11 11 10 10 11 11 11 12 13 12 12 12 11 12 12 12 13 12
10 11 13 15 16 17 18 18 17 14 12 10 10 11 11 10 11 11 13 18 22 24 25 26 27 27 26 26 26 26 27 26 26 25 24 23 23 22 22 22 21 20 19 18 17 16 15 14 13 13 14 14 14 13 14 15 18 20 21 19 17 16 15 15 15 15 14 13 13 12 12 13 13 13 13 13 13 13 13 13 12 12 12 13 12
10 12 14 15 16 17 17 18 17 15 13 12 11 11 11 12 12 12 14 19 22 24 25 26 27 27 26 26 25 25 25 24 24 23 23 23 23 23 22 22 21 20 20 19 18 16 15 14 13 13 13 14 13 12 12 13 15 19 21 21 19 17 15 15 15 14 14 14 14 14 14 14 14 14 13 14 14 14 14 14 14 13 13 13 13
10 12 14 15 16 17 17 18 18 16 14 13 12 12 12 12 13 13 14 18 21 23 24 25 27 27 26 25 24 23 23 22 22 22 22 23 22 22 21 21 20 20 19 18 17 16 15 14 14 14 14 14 13 13 13 13 14 17 20 21 21 19 17 17 17 16 15 15 15 15 14 14 14 14 14 14 14 14 15 14 14 14 14 14 14
11 12 14 15 16 17 17 18 18 17 16 15 14 13 13 13 14 15 15 18 19 20 23 25 27 28 27 27 25 24 23 22 22 22 22 21 21 21 21 20 20 19 19 18 17 16 16 16 16 15 15 14 14 14 14 14 14 16 18 20 21 21 20 20 19 18 18 19 17 16 15 14 14 14 14 13 13 14 14 15 15 14 14 14 15
12 13 14 15 16 16 16 18 19 18 17 15 13 12 13 14 16 17 16 17 16 14 16 19 20 20 20 23 25 25 25 24 24 23 22 21 20 19 19 20 20 20 19 17 17 17 17 18 17 17 17 17 16 15 15 15 15 16 17 19 20 21 20 20 19 19 20 20 19 18 18 16 15 15 14 12 13 14 14 15 15 14 14 14 15
12 13 14 15 15 16 16 17 18 18 16 15 13 11 12 13 15 19 19 18 15 10 8 7 6 8 8 10 13 17 20 23 25 24 23 21 20 20 19 18 19 19 18 17 17 18 18 19 19 19 19 19 19 19 18 18 17 17 18 17 19 21 20 20 20 19 20 21 20 20 20 19 17 16 14 12 13 14 15 15 15 15 14 15 17
13 13 14 14 15 16 15 16 17 17 16 16 15 13 13 13 14 17 19 21 19 14 8 2 2 4 4 3 2 3 7 14 19 21 22 22 21 21 20 19 18 16 16 17 17 17 18 19 19 20 20 20 20 21 20 20 19 19 18 16 18 20 20 19 19 19 20 21 21 21 21 21 20 19 17 16 15 15 15 15 16 16 16 15 17
12 13 13 14 15 15 15 16 17 17 16 18 18 16 15 14 15 15 17 20 21 21 17 12 7 4 2 1 1 1 1 5 8 10 15 19 21 21 21 20 19 17 15 16 16 16 16 17 18 19 19 20 21 21 21 20 20 19 18 16 17 20 19 18 19 20 20 21 22 22 22 22 21 20 20 20 19 18 17 17 17 17 18 16 15
12 12 13 14 15 15 15 15 16 16 17 18 18 17 16 15 15 15 16 18 20 22 22 20 17 12 8 4 2 1 0 2 3 3 6 13 17 19 19 19 20 21 17 16 16 14 15 16 17 18 17 18 20 20 21 20 19 19 16 15 18 19 18 18 19 20 20 21 21 22 23 23 22 22 22 22 22 20 19 19 18 18 18 17 16
11 12 12 13 14 14 14 15 16 16 16 17 17 17 16 16 16 16 17 16 17 21 21 21 22 21 19 15 10 6 2 1 1 0 2 5 11 15 17 16 17 22 20 15 15 14 13 15 15 16 15 16 20 20 19 18 17 16 14 15 18 18 18 19 20 20 21 21 22 22 22 23 23 23 23 23 22 21 20 19 19 18 17 17 17
10 11 12 13 14 14 14 14 15 15 15 16 16 16 16 16 16 16 17 16 16 19 18 17 19 21 21 20 19 16 11 7 3 1 1 1 7 12 15 15 12 18 23 16 14 14 12 14 15 15 14 17 20 19 17 16 15 13 13 16 18 17 18 20 20 21 21 22 23 23 23 23 24 24 23 22 21 20 20 19 19 19 18 17 17
9 10 11 12 13 14 14 14 14 15 15 15 15 15 15 15 15 16 17 17 18 19 18 17 17 16 16 18 19 19 18 15 10 6 2 2 5 8 15 18 11 14 23 18 14 12 11 16 18 16 18 20 20 17 15 15 15 14 16 18 18 18 20 21 21 21 22 23 24 24 24 23 23 24 23 22 20 19 18 18 17 17 17 16 15
7 9 11 12 13 13 13 14 13 13 14 15 14 13 14 14 15 15 17 18 19 19 20 19 18 16 14 15 16 17 18 18 15 11 7 2 2 4 13 19 12 13 22 19 15 12 11 17 20 18 21 22 20 18 16 17 17 16 18 19 19 19 21 22 22 22 23 24 24 24 24 24 24 24 23 22 20 18 18 18 16 16 15 15 15
6 8 10 11 12 13 13 13 12 12 13 14 14 13 13 14 15 15 17 18 19 19 19 19 19 18 16 16 16 15 15 15 15 13 9 5 2 2 8 13 9 13 22 20 15 13 9 16 22 21 24 25 23 22 20 19 18 17 19 20 19 20 22 23 22 22 23 24 25 25 25 25 24 23 22 21 19 18 18 17 16 15 14 14 14
5 7 9 10 11 12 13 12 11 11 11 12 13 13 13 13 14 15 16 17 18 19 19 18 18 18 18 18 18 17 14 12 11 11 8 4 2 2 6 10 8 11 20 19 14 13 9 14 23 24 25 27 24 23 21 19 18 16 18 19 20 21 22 22 22 22 24 25 25 25 26 26 25 23 22 22 20 19 18 17 16 16 15 14 13
3 5 7 8 9 11 12 12 10 9 9 10 11 11 12 12 13 14 15 16 16 17 18 17 17 18 18 18 17 17 16 13 11 11 9 7 5 2 5 9 6 10 20 19 16 15 10 13 22 24 25 26 24 23 21 20 18 17 19 20 20 22 22 22 23 23 23 24 25 25 25 26 25 24 23 22 21 20 19 18 17 16 16 15 14
2 3 4 6 7 9 11 11 9 8 7 7 8 8 9 10 11 13 13 14 14 15 17 17 16 16 16 16 17 17 16 14 13 13 12 11 10 7 5 7 5 10 18 18 18 18 12 14 21 23 25 25 24 23 21 20 19 18 19 20 20 21 22 22 23 23 23 24 25 24 25 25 25 25 23 22 21 20 20 19 18 17 17 16 15
3 2 2 4 6 8 10 10 8 6 5 5 6 7 7 8 9 11 12 13 12 13 15 15 15 15 14 15 17 18 17 16 15 15 15 14 13 11 9 8 7 10 15 15 16 15 11 15 20 21 25 26 24 23 21 20 20 18 19 20 20 20 21 22 22 23 24 25 25 25 24 25 25 25 24 22 21 20 20 19 19 18 17 17 16
5 3 1 2 4 6 8 9 7 4 3 3 4 5 5 6 7 9 10 11 11 12 13 13 14 13 13 14 15 17 17 16 16 15 15 15 14 14 12 7 5 7 10 12 14 13 11 15 20 21 24 26 25 23 21 20 19 18 19 19 19 20 20 22 22 23 24 24 25 25 24 24 25 25 25 23 22 21 20 20 20 19 18 17 17
6 5 2 1 3 5 6 7 5 3 2 2 2 3 3 4 5 6 8 8 9 11 11 11 12 12 12 12 13 15 15 15 15 15 15 14 13 13 12 7 2 3 4 5 8 9 10 12 16 22 25 26 26 23 20 19 18 18 20 20 20 21 20 20 22 23 24 24 24 24 24 24 24 24 24 23 23 22 21 21 20 20 20 18 18
8 7 4 3 2 3 3 4 4 2 2 2 2 2 2 3 3 4 5 6 7 9 9 9 10 10 11 10 11 12 13 13 14 14 14 14 13 12 10 7 2 2 2 3 3 5 8 11 12 19 26 27 25 23 20 19 19 20 21 22 21 21 20 21 23 23 23 23 24 24 24 24 24 24 24 23 23 22 21 21 21 20 20 19 19
10 8 6 5 3 1 1 2 3 2 2 2 2 2 1 1 2 3 4 4 5 8 8 8 8 8 9 9 8 9 10 11 12 13 13 13 13 12 11 7 4 3 2 3 4 5 8 14 15 19 26 27 24 24 22 20 20 20 22 22 21 21 22 22 22 22 23 23 24 25 24 24 24 24 24 23 23 22 21 21 21 20 20 20 20
11 10 9 7 5 3 1 1 2 1 1 2 2 2 1 1 2 2 3 2 3 5 6 6 6 5 6 7 6 7 8 10 10 11 12 11 11 12 12 10 7 5 5 4 4 6 10 16 20 23 25 26 25 24 23 22 20 21 22 23 22 22 22 22 22 22 23 24 25 25 24 24 24 24 23 23 22 22 22 21 20 20 20 20 20
13 12 10 8 6 5 3 2 0 1 1 2 2 3 2 1 2 2 2 1 1 3 4 5 4 4 4 5 5 5 7 8 9 10 10 10 11 11 12 12 9 7 7 6 6 11 18 19 21 25 25 24 25 24 24 25 22 22 24 23 24 24 23 24 24 24 24 26 25 25 25 24 23 23 23 23 23 22 21 22 21 20 20 20 20
14 13 12 9 8 6 5 4 2 1 2 3 3 4 3 3 2 2 2 1 1 0 2 2 3 3 3 4 4 4 6 7 8 9 9 10 11 12 13 14 12 8 7 7 7 13 22 22 22 25 24 24 25 24 25 27 26 26 27 26 25 26 26 27 28 27 27 27 26 25 25 25 24 23 23 23 24 23 23 23 22 21 20 20 20
15 14 13 11 10 9 7 5 4 2 2 4 5 5 4 4 3 3 3 2 2 1 1 1 1 1 2 3 3 4 6 7 7 8 9 10 11 13 14 14 14 11 7 8 8 10 18 25 25 25 25 24 25 25 25 27 29 30 30 29 28 28 29 30 30 30 30 28 27 26 26 26 25 24 24 24 24 24 24 23 22 22 21 21 21
17 16 14 12 11 10 9 7 5 4 3 4 5 5 5 5 5 5 5 4 4 3 3 3 2 2 2 3 3 5 5 5 5 7 8 10 12 14 16 15 14 13 9 8 9 9 15 23 25 24 25 26 25 25 26 27 28 30 31 31 31 30 30 30 30 31 30 28 27 26 26 26 25 25 25 25 25 25 24 24 23 23 23 23 22
18 17 15 14 13 12 11 9 7 6 5 5 5 6 6 6 6 6 6 6 5 4 4 4 4 3 4 4 4 6 6 4 5 7 8 10 13 14 16 15 14 15 12 8 9 10 13 19 23 24 25 25 26 26 26 28 29 29 29 31 33 33 32 31 31 31 31 30 28 26 26 27 27 27 27 27 26 26 25 25 25 25 25 25 24
19 18 17 16 15 14 12 10 9 8 6 6 6 7 7 7 7 6 6 7 7 6 6 5 5 5 5 5 6 7 6 5 5 7 9 10 13 15 16 15 14 14 12 9 9 12 14 18 23 24 24 25 27 27 27 29 32 32 31 31 34 35 33 33 33 33 33 32 29 28 29 30 30 29 29 28 28 28 27 27 27 26 26 26 25
20 20 19 18 17 15 14 12 10 10 8 8 7 8 8 8 8 8 8 8 8 7 7 6 6 6 6 6 7 7 6 7 7 8 9 11 13 16 15 14 14 12 11 10 11 14 17 19 21 23 24 25 27 28 28 28 30 33 34 32 33 36 35 33 34 36 35 32 30 30 30 30 31 30 29 29 28 28 28 27 27 27 27 26 26
22 21 21 20 19 17 15 14 13 11 10 9 9 9 10 10 10 10 10 9 9 8 8 8 7 6 6 6 7 7 7 8 8 9 10 11 13 15 14 13 12 11 10 12 14 16 18 20 21 23 24 24 26 28 28 28 27 28 29 29 31 38 41 35 32 35 36 33 31 32 31 29 30 31 30 30 30 29 29 29 28 28 27 26 26
23 23 22 21 20 18 17 16 14 13 12 12 11 11 11 11 11 11 11 11 11 10 10 9 8 7 7 6 5 6 7 8 9 10 10 11 13 14 12 11 10 10 11 13 15 17 19 21 22 24 24 25 26 27 29 29 27 25 26 26 26 32 40 40 36 32 32 33 32 32 33 33 33 34 33 33 33 31 30 30 29 27 26 26 26
23 22 21 21 21 20 19 17 16 16 15 13 12 12 12 12 12 12 12 12 13 12 12 11 10 9 8 7 7 7 8 9 10 12 11 11 13 13 10 9 9 10 12 13 15 18 19 20 22 24 24 24 26 27 28 28 26 27 30 29 24 26 31 36 39 34 29 31 35 36 37 36 35 35 35 33 34 32 30 30 29 28 28 28 28
24 23 22 22 22 21 20 19 18 18 17 15 13 13 12 12 12 12 13 13 13 14 13 13 12 12 10 9 9 9 10 10 12 13 12 12 12 11 9 8 9 10 12 14 15 17 18 19 20 22 22 23 26 26 26 28 28 29 31 28 25 26 24 25 33 36 32 32 36 38 39 39 35 33 33 31 31 31 29 29 30 29 30 30 29
26 25 24 24 23 22 21 20 19 19 18 16 14 13 13 12 12 12 12 13 13 14 15 14 14 13 13 12 12 12 13 13 14 15 14 12 11 10 7 7 10 11 12 13 15 16 17 18 20 21 21 24 28 27 26 29 29 29 30 29 25 25 22 17 20 28 32 34 33 33 37 39 34 29 29 29 29 29 28 29 30 30 29 29 28
27 27 26 26 25 23 23 22 21 20 18 16 14 13 13 13 12 12 12 12 13 14 15 15 15 15 15 14 14 14 15 15 16 16 15 13 12 10 7 7 9 11 13 14 15 15 16 16 19 21 21 24 27 27 27 29 29 30 31 28 24 22 22 19 16 23 32 36 30 27 32 36 31 26 28 30 29 29 28 29 30 29 27 27 26
29 28 28 28 26 25 24 24 22 21 19 18 16 14 13 13 13 13 12 12 12 13 14 15 16 16 16 16 16 16 16 16 17 17 16 14 12 10 8 8 9 11 14 14 14 15 15 16 17 20 22 23 25 26 27 27 29 31 29 26 25 24 22 20 20 27 33 32 26 24 28 30 28 26 30 31 29 28 28 28 27 25 24 23 23
30 30 30 29 28 27 26 25 23 22 20 19 17 14 13 13 13 13 13 13 13 13 14 14 15 16 17 17 17 17 16 16 17 17 15 13 12 11 10 10 12 13 15 15 14 13 15 15 16 20 22 22 23 25 26 26 26 28 28 28 28 27 27 28 27 29 30 28 25 23 23 26 28 29 31 31 29 29 29 26 24 22 22 23 22
32 31 30 30 29 27 26 25 24 23 21 20 18 16 14 13 14 14 14 14 14 14 14 14 15 16 16 16 17 17 16 15 16 15 14 13 13 13 13 13 15 16 17 16 14 13 14 14 15 19 21 22 22 23 25 25 24 23 24 25 27 28 30 33 30 25 26 32 32 22 19 27 30 30 33 34 31 29 27 24 24 24 23 22 20
30 30 31 31 29 28 26 26 25 24 22 20 19 17 15 14 14 15 15 15 15 15 14 14 15 15 16 16 16 16 16 15 15 14 12 12 14 14 15 15 17 18 19 17 14 13 14 15 15 18 21 22 22 23 24 23 20 21 22 24 27 27 24 25 23 20 24 34 33 21 19 29 31 29 35 38 33 28 26 25 24 23 22 19 16
31 32 33 32 30 29 27 26 26 24 23 21 20 18 16 15 15 16 16 16 15 15 15 15 15 16 17 17 17 17 17 16 15 12 11 12 14 15 16 17 18 20 21 19 16 15 15 15 17 19 21 23 24 24 24 21 18 20 22 23 27 26 19 15 16 20 25 28 25 20 21 28 30 29 32 35 32 26 24 24 23 21 20 19 14
34 33 32 30 29 29 28 26 25 24 23 22 21 20 18 16 16 16 16 16 16 16 15 15 15 16 17 17 17 18 18 16 14 12 12 13 15 16 16 18 20 22 22 20 19 20 19 19 19 21 22 24 25 25 25 22 18 18 20 22 25 25 19 14 15 21 24 23 22 23 23 27 31 30 28 27 26 25 23 22 21 19 18 18 15
32 30 30 30 30 30 28 26 25 24 23 22 21 21 19 17 17 17 16 17 17 17 16 15 15 16 16 17 17 18 18 15 14 13 13 15 16 17 17 18 21 22 21 19 19 20 21 21 21 22 24 25 25 25 25 22 19 18 18 21 23 23 21 18 18 19 16 18 25 28 24 25 31 32 27 19 13 17 23 24 20 17 15 15 13
Wind_Direction
74 68 60 53 47 41 38 36 37 39 41 44 51 59 62 64 64 61 65 72 76 79 80 82 89 101 118 126 123 122 125 123 117 113 112 108 86 66 47 34 43 51 49 47 50 53 52 51 51 51 50 50 50 49 48 47 47 45 42 40 42 45 42 38 34 30 24 18 15 13 9 9 5 355 344 333 321 309 299 293 286 279 277 277 272
72 66 58 49 41 34 32 30 30 34 36 41 45 52 59 61 63 65 67 71 73 75 78 80 83 90 109 124 122 121 126 127 122 117 111 100 74 53 45 44 47 49 51 47 45 51 53 49 47 48 48 46 43 41 39 38 38 39 36 30 29 33 34 30 24 20 15 11 10 9 7 8 7 3 356 347 336 325 315 306 299 290 284 281 275
69 64 56 46 36 31 28 26 28 33 38 45 49 52 58 60 61 63 66 72 75 75 78 81 81 83 95 111 115 116 116 115 110 103 95 78 61 51 49 51 51 51 55 51 45 48 51 50 49 49 46 41 37 34 31 29 29 30 30 26 20 18 19 19 13 8 4 1 -0 360 358 358 -0 4 4 358 351 342 333 322 314 306 299 289 280
67 63 53 44 37 33 31 28 28 33 39 45 53 58 61 64 63 64 68 76 80 79 81 84 83 83 87 95 102 101 97 98 95 88 80 72 67 66 62 61 59 59 58 54 53 51 55 59 55 50 45 38 33 30 27 27 26 25 25 25 21 18 22 23 16 7 2 358 355 353 353 352 353 358 1 -0 360 -0 354 343 334 325 316 305 294
66 60 51 41 37 35 33 32 30 32 35 40 49 55 60 63 61 63 69 77 83 85 88 88 87 88 88 90 94 92 91 92 89 86 82 77 76 76 74 72 70 67 65 61 59 60 64 66 57 49 45 38 35 31 28 29 28 26 27 26 25 28 33 31 21 12 6 3 1 356 353 351 349 353 356 356 356 -0 1 358 353 344 336 324 314
62 55 47 38 34 35 34 33 31 30 35 38 41 45 49 55 56 59 70 80 87 90 92 92 91 91 90 90 91 89 90 89 87 87 85 82 81 80 77 75 74 71 70 70 69 71 70 67 60 55 53 49 45 41 37 34 28 27 29 25 25 31 34 33 25 19 12 8 6 2 357 353 352 354 357 360 358 356 357 357 357 354 352 344 335
54 47 41 36 34 34 34 32 29 28 35 40 42 45 44 48 53 61 79 89 92 94 95 95 94 92 90 91 90 89 90 88 86 86 84 84 83 79 77 74 72 72 72 73 75 78 75 74 71 66 64 61 57 55 52 44 33 31 30 22 22 26 28 31 28 21 12 8 6 3 1 358 355 355 359 5 5 -0 356 354 355 356 356 355 351
49 41 38 37 35 34 33 30 28 28 34 40 46 50 48 49 50 62 88 98 96 96 97 97 96 92 91 91 89 90 89 86 85 84 82 82 80 77 76 73 71 70 70 72 74 77 76 77 78 74 68 64 60 59 58 50 40 35 32 25 24 26 29 31 29 23 15 10 6 4 4 4 -0 356 357 -0 1 1 358 351 350 352 354 357 356
46 38 37 38 35 34 32 29 28 30 36 43 50 55 53 55 55 65 95 104 100 98 97 97 96 93 91 89 88 88 86 84 83 82 81 79 76 74 73 72 70 69 68 69 70 73 74 73 75 72 67 62 59 57 54 50 43 35 30 28 25 25 28 28 25 21 17 12 9 5 2 3 3 359 357 352 352 358 359 357 355 353 353 355 355
46 38 36 38 34 31 30 30 29 31 41 49 55 59 57 60 60 70 101 110 103 100 98 97 96 93 89 86 85 85 83 82 81 79 78 75 73 72 71 71 70 68 67 67 67 68 68 67 65 63 60 55 51 49 46 43 39 31 25 24 21 18 18 16 11 7 4 3 360 356 352 351 353 354 354 351 351 354 356 360 1 357 353 353 353
45 38 35 34 31 29 29 30 30 33 44 54 59 61 61 64 64 74 101 110 105 103 101 101 98 93 88 84 81 81 80 79 78 76 75 74 73 72 70 70 68 67 66 64 62 60 58 55 51 48 47 44 40 37 34 31 29 25 20 17 15 12 8 3 -0 358 356 353 347 344 341 341 344 344 346 347 348 349 351 353 355 355 354 352 350
43 35 33 32 30 29 29 30 31 33 43 51 57 61 62 64 68 78 102 112 110 108 106 104 99 93 88 84 80 78 77 75 74 73 73 73 72 72 70 68 66 63 61 57 55 51 46 42 37 33 30 27 25 22 19 17 16 14 12 10 8 5 2 358 356 356 355 352 349 347 342 337 336 336 335 340 344 344 345 345 345 348 348 348 346
40 33 33 31 30 29 28 31 31 34 44 51 56 65 67 67 69 77 96 110 108 111 116 110 101 96 90 84 81 77 74 73 71 70 70 70 69 69 67 65 62 58 54 49 45 41 36 31 25 21 17 11 8 6 2 0 -0 359 358 0 1 359 355 354 352 349 349 350 349 347 345 340 334 330 328 332 340 341 340 339 339 341 342 341 337
37 31 32 30 29 29 30 33 33 38 49 57 61 70 72 71 72 75 83 91 88 97 135 137 109 113 113 94 83 78 71 68 67 66 66 67 66 65 62 59 56 53 50 45 40 34 28 23 18 14 10 7 4 360 355 352 351 348 345 347 354 355 352 350 348 345 345 346 345 342 341 340 336 334 331 328 331 332 333 334 334 335 338 337 331
34 28 30 32 30 33 35 35 36 41 50 59 65 71 74 72 73 76 79 81 76 71 84 113 120 126 128 111 89 88 68 56 58 61 61 63 64 62 59 55 51 48 46 44 40 34 27 20 16 14 9 7 6 2 358 355 352 348 344 345 352 353 350 348 347 344 341 338 336 335 333 331 329 327 326 324 324 323 322 323 323 325 328 331 330
33 30 32 34 34 36 38 38 40 43 49 57 63 67 72 74 74 77 78 78 74 66 63 64 73 96 114 110 58 86 76 24 35 53 55 57 58 57 55 52 47 43 43 45 42 35 30 24 18 17 12 8 6 4 1 358 355 353 349 351 354 351 348 346 344 341 337 333 329 328 326 324 321 318 316 314 314 314 313 312 313 316 317 318 322
34 33 35 38 39 40 40 42 45 46 49 55 61 65 69 71 72 74 76 80 79 72 66 63 66 70 78 94 66 45 206 319 5 49 47 48 47 47 48 47 44 40 39 44 43 37 33 29 22 20 16 7 5 5 3 2 360 358 357 358 353 348 346 344 340 336 334 330 326 325 324 322 319 316 313 310 308 308 306 306 306 307 309 309 310
35 36 39 41 43 44 43 46 48 49 51 55 61 66 68 70 71 73 76 81 84 81 75 69 68 68 71 77 75 76 88 313 6 19 2 33 35 36 38 39 39 35 34 38 39 36 32 28 21 20 15 3 3 5 4 5 2 1 5 0 350 346 346 343 339 335 331 327 323 320 319 319 318 316 314 311 310 309 306 302 301 302 304 305 304
35 40 43 44 45 45 44 46 50 52 53 56 61 66 69 72 72 73 76 77 81 86 86 80 76 72 72 76 75 74 69 63 80 35 307 331 9 21 25 29 36 28 26 32 36 34 29 23 20 17 11 1 2 3 2 5 3 5 12 0 348 345 345 341 336 332 327 324 321 319 319 318 317 316 315 314 313 312 311 305 299 299 300 302 300
38 44 46 46 44 43 44 46 52 56 56 60 67 70 72 73 72 72 73 71 73 81 85 83 82 80 78 78 75 73 70 68 70 65 98 250 345 5 4 11 30 23 18 25 35 37 26 18 17 13 6 1 2 5 3 5 4 6 9 357 345 343 341 337 334 330 326 323 322 322 324 322 320 319 318 318 317 316 317 313 306 302 302 302 301
44 47 47 45 42 42 43 45 53 60 63 66 72 76 76 75 74 71 71 71 71 76 80 79 80 82 78 76 73 70 68 63 59 58 64 44 349 343 345 357 8 8 11 18 28 31 19 13 15 12 6 3 4 5 2 1 359 358 360 351 342 341 339 336 333 329 327 325 324 323 323 322 320 320 320 319 319 319 318 317 315 310 307 305 304
50 49 43 41 40 42 42 46 56 64 67 68 72 78 80 80 78 75 73 74 74 75 78 79 77 76 73 73 71 65 62 55 50 50 52 46 12 319 334 344 336 342 360 12 19 20 11 8 13 11 5 3 1 359 356 354 352 351 352 345 340 340 337 334 332 329 328 326 324 322 320 319 318 316 317 317 318 319 317 316 317 316 313 310 307
48 42 36 37 41 45 43 45 55 63 66 66 70 76 80 83 81 79 76 75 76 76 77 78 76 75 71 69 70 67 66 62 55 52 55 57 11 314 326 336 315 319 348 2 10 11 4 3 9 9 3 -0 357 355 353 349 346 346 345 341 339 338 335 334 332 329 328 326 324 322 319 319 317 313 314 315 316 318 318 318 317 317 316 314 313
28 27 31 39 42 43 39 36 45 57 62 62 67 74 79 82 81 80 78 75 74 73 73 73 70 72 71 67 67 64 62 60 54 51 54 52 37 8 328 346 330 317 344 357 359 360 1 0 4 3 360 358 355 353 350 343 341 343 342 338 336 336 334 334 331 329 328 328 327 324 322 321 318 316 315 314 315 316 319 322 321 320 320 318 317
336 6 27 42 41 36 30 26 32 47 55 60 68 75 76 79 79 79 79 74 70 67 67 68 65 67 70 67 63 57 54 50 45 46 46 41 36 25 350 355 349 330 345 353 352 353 354 355 357 357 356 355 352 349 344 338 338 342 340 334 333 334 333 332 331 328 326 326 326 324 323 322 320 320 319 316 314 314 318 321 321 322 321 318 316
283 321 13 38 32 27 23 18 22 37 52 64 74 77 74 75 78 79 77 72 68 65 66 67 67 68 69 67 61 55 51 45 42 43 39 36 37 27 7 356 352 347 344 343 346 347 340 345 351 352 353 353 351 347 342 338 338 342 338 331 332 335 332 331 330 327 325 323 323 322 321 320 319 320 321 320 318 316 317 316 315 317 317 316 315
265 278 318 16 14 17 17 14 18 40 66 77 82 79 70 69 76 79 78 72 67 68 68 67 67 68 65 63 59 54 49 42 40 40 36 37 37 30 25 15 349 350 343 332 337 336 325 336 343 346 350 350 349 348 344 341 342 343 337 332 333 334 331 330 329 326 324 322 321 320 319 318 317 318 319 320 319 316 314 311 309 310 311 314 315
253 253 258 300 347 5 14 17 25 52 87 95 98 88 71 68 77 82 83 75 66 67 67 64 64 63 61 57 54 53 47 39 38 37 34 35 34 30 32 34 2 335 333 321 331 330 324 332 335 339 346 348 348 349 347 344 345 344 337 333 333 332 331 331 328 325 323 322 321 319 318 316 315 315 316 316 315 313 311 307 305 306 306 308 311
247 242 243 252 296 349 12 26 36 67 116 127 132 116 84 80 86 89 87 76 68 68 64 63 65 60 58 54 50 52 44 35 35 34 31 31 32 31 26 23 8 312 318 313 310 302 312 325 325 332 343 347 347 348 348 345 344 342 336 333 332 331 332 331 327 326 325 323 324 322 319 317 314 312 312 311 310 308 306 305 304 304 303 302 304
240 236 236 238 247 278 350 34 48 72 132 149 157 162 140 106 111 108 100 78 67 72 64 61 64 57 55 53 47 48 40 31 31 30 27 27 28 27 21 13 348 298 268 290 299 274 297 320 323 329 340 344 345 346 346 344 341 338 335 332 330 331 332 330 327 326 325 325 326 326 324 319 314 311 309 308 307 305 303 302 302 300 300 299 298
237 234 234 235 235 235 248 37 52 59 143 168 178 191 205 163 147 134 123 92 60 73 67 57 58 51 49 50 46 44 34 26 26 22 19 20 17 15 13 8 352 319 274 264 285 282 293 312 322 332 340 341 342 344 343 341 340 336 333 331 330 331 330 328 327 325 324 325 325 326 326 322 317 312 309 307 305 303 301 300 299 298 297 296 295
235 233 232 233 234 234 237 243 314 0 201 193 194 202 211 198 174 165 152 150 37 71 68 56 53 40 34 39 39 34 23 18 18 14 10 10 6 3 1 358 355 337 297 263 250 287 302 312 323 334 342 341 341 343 341 339 338 335 333 332 332 332 331 329 329 327 326 326 326 327 327 325 321 316 312 310 306 304 301 298 297 297 297 296 294
235 232 231 231 235 237 236 240 251 280 234 209 206 211 217 217 204 201 202 213 269 57 66 49 44 30 14 22 24 14 10 9 9 6 3 1 357 354 353 350 347 341 311 280 260 287 307 320 329 335 343 343 340 342 342 338 337 336 334 334 334 333 333 332 331 330 330 330 330 330 329 327 325 320 315 312 309 306 304 302 300 299 300 298 294
236 233 232 232 235 236 234 235 237 240 239 220 217 222 226 229 226 223 228 234 248 262 261 315 8 5 343 354 358 351 356 3 5 2 358 356 353 348 348 346 340 338 323 295 283 284 303 317 328 335 342 343 338 341 343 338 336 336 334 333 335 334 333 333 331 330 333 334 333 332 330 327 325 319 315 313 311 309 307 304 301 300 300 298 295
236 233 233 234 235 234 230 231 232 232 236 227 223 227 232 238 241 240 241 241 248 260 258 264 296 315 309 319 327 332 342 356 359 357 354 350 349 346 344 343 336 333 331 309 296 287 296 310 322 331 337 339 337 339 343 339 335 335 333 332 333 333 332 331 329 329 333 336 336 334 330 325 322 319 315 313 312 310 308 305 302 300 299 297 296
237 233 232 232 232 230 228 229 233 236 239 234 230 231 236 242 248 250 248 244 245 255 259 264 281 294 296 298 309 319 323 329 338 341 343 343 343 343 342 341 335 331 333 326 308 300 295 302 315 327 333 335 335 339 342 339 335 334 333 332 331 331 330 330 330 329 332 334 334 333 329 323 319 317 315 313 312 311 308 306 303 300 298 297 294
238 233 230 229 229 230 230 233 236 239 242 241 238 237 240 245 251 256 252 245 246 251 258 267 277 286 289 290 303 313 309 307 318 323 327 333 337 340 339 339 337 334 336 337 324 315 305 301 311 325 333 335 335 340 344 339 334 333 332 332 331 330 329 331 331 331 333 333 331 331 328 324 320 318 315 314 311 309 307 304 303 300 298 297 294
238 233 230 230 231 232 234 235 237 240 241 242 244 243 245 248 251 255 253 249 251 253 258 265 271 280 286 290 300 306 298 301 309 311 313 322 333 337 338 339 338 336 338 338 332 325 318 313 315 322 331 335 335 337 342 341 334 331 330 329 329 331 331 331 332 332 334 333 330 329 326 321 318 315 313 313 312 310 308 305 304 303 299 296 292
236 233 231 230 232 234 235 235 237 240 241 242 246 246 247 249 251 252 253 254 257 258 261 264 265 274 284 293 305 306 297 300 306 306 305 314 329 335 336 337 337 334 334 335 332 329 326 324 324 324 327 332 333 333 337 339 334 331 330 325 324 329 331 330 328 329 331 331 330 329 326 321 318 317 318 319 317 313 311 309 306 302 297 292 288
236 233 232 231 231 231 232 235 236 238 239 241 245 248 249 251 250 251 253 255 259 260 260 262 263 268 277 287 302 308 307 305 301 298 300 311 326 333 333 335 336 331 329 331 331 331 329 326 326 326 326 328 331 332 334 336 333 329 329 325 317 321 327 327 326 328 330 329 327 327 328 328 326 324 324 321 319 316 312 309 304 297 291 287 283
237 232 231 231 230 229 229 232 234 236 238 241 246 250 253 253 252 252 253 255 257 259 257 257 260 263 269 275 282 294 305 305 295 290 294 308 322 327 330 335 338 334 331 330 329 328 327 324 324 326 325 324 328 330 329 331 329 324 326 324 314 313 320 322 323 327 331 329 327 327 328 329 326 322 321 318 317 315 310 305 301 295 291 289 286
235 229 228 230 229 230 231 232 234 236 238 241 246 253 256 256 255 253 254 256 256 255 255 254 256 261 266 268 272 281 290 291 286 285 290 303 314 321 328 336 338 335 330 326 326 325 322 318 320 322 320 318 324 326 323 325 327 324 324 323 316 316 319 318 320 326 331 333 329 326 325 327 324 317 315 314 312 312 309 305 302 297 293 290 286
233 227 227 229 230 232 233 233 236 238 239 241 245 253 257 255 254 254 255 257 256 254 255 255 256 260 264 266 270 276 281 282 283 284 287 294 307 316 324 335 337 334 328 322 321 322 319 315 317 319 315 314 320 324 323 325 327 324 323 322 319 318 319 316 315 319 327 333 327 317 317 322 322 314 311 311 312 313 309 305 303 299 293 289 282
233 227 227 230 231 232 232 233 236 238 240 241 244 251 254 252 253 255 256 257 257 256 256 257 258 260 262 266 271 275 280 283 285 285 283 287 301 308 312 329 337 337 334 328 322 321 321 315 313 315 316 315 319 324 327 327 325 323 323 322 320 317 314 313 307 309 322 331 325 309 308 315 319 316 312 313 315 314 311 310 312 309 303 296 287
234 228 227 229 230 231 232 232 236 238 239 240 243 248 252 252 253 255 258 261 262 262 261 259 260 259 261 266 270 273 279 284 287 286 282 284 295 300 302 317 327 332 335 331 324 322 325 321 313 315 322 323 319 323 329 329 325 323 322 321 321 319 311 307 305 308 320 329 322 309 307 311 319 322 317 316 319 319 321 325 326 321 313 305 293
232 228 227 228 229 230 232 233 236 238 239 240 242 245 250 253 254 255 259 263 264 265 266 264 262 261 262 266 270 274 280 284 286 287 283 282 290 294 297 308 317 324 330 329 323 320 322 324 318 320 329 329 322 324 330 330 326 323 322 322 323 320 314 313 314 314 320 329 328 319 311 313 322 325 320 321 325 326 331 337 336 330 321 310 297
233 231 229 229 229 230 232 234 236 237 239 240 241 244 248 252 255 255 257 262 264 266 267 266 264 263 262 265 271 278 283 285 285 286 281 280 288 293 297 305 312 318 326 329 326 320 321 324 323 325 331 331 326 326 330 330 327 324 323 323 324 324 320 319 321 321 325 333 336 330 311 312 322 324 321 325 327 328 337 345 341 336 327 316 306
231 233 232 230 230 231 233 234 236 238 240 240 240 243 247 251 253 254 256 260 263 265 267 267 265 262 261 265 273 280 284 285 285 282 277 279 288 294 298 305 311 315 323 330 328 323 324 324 325 329 332 331 329 329 332 333 330 328 328 327 329 330 322 317 320 322 327 333 336 334 313 312 321 325 322 325 328 328 338 348 344 341 340 338 330
230 233 232 229 230 233 233 233 237 239 240 241 241 243 246 249 252 253 255 259 262 264 267 268 265 262 262 266 273 279 283 286 284 277 271 277 288 294 299 306 311 313 321 329 328 326 327 325 327 331 333 333 332 333 337 339 334 334 336 333 333 332 323 316 322 322 323 326 333 336 322 314 320 324 321 325 328 329 339 349 346 345 353 358 358
231 230 231 229 230 234 234 235 239 242 243 243 243 244 246 249 252 253 255 258 261 263 266 268 267 265 265 267 272 278 285 286 280 271 269 275 285 292 299 306 309 312 320 327 326 326 327 325 328 331 332 335 336 337 341 343 340 340 339 336 335 332 323 318 322 320 318 318 328 338 328 315 320 325 323 324 327 329 339 350 348 347 358 6 11
227 227 230 230 231 235 235 236 240 243 245 245 244 245 246 247 250 251 253 256 259 262 267 270 271 270 269 270 272 278 285 285 274 268 270 275 282 289 296 302 305 310 318 322 321 323 325 324 327 330 331 335 338 340 344 346 345 344 339 337 338 333 322 316 320 323 316 312 327 336 328 316 320 326 328 329 323 325 339 349 350 348 355 8 19